| time (UTC) | temp C | wind direction | speed KPH | gust KPH | rain 1hr cm | rain 24hr cm | rain mn cm | humidity % | barometer mb |
| 20260506231501 | 17 | 288 | 11.3 | 27.4 | 0.00 | 0.00 | 0.00 | 76 | 1017.7 |
| 20260506230059 | 17 | 302 | 11.3 | 29.0 | 0.00 | 0.00 | 0.00 | 77 | 1017.9 |
| 20260506224554 | 17 | 312 | 12.9 | 29.0 | 0.00 | 0.00 | 0.00 | 77 | 1018.2 |
| 20260506223059 | 17 | 277 | 14.5 | 27.4 | 0.00 | 0.00 | 0.00 | 77 | 1018.3 |
| 20260506221554 | 17 | 308 | 14.5 | 27.4 | 0.00 | 0.00 | 0.00 | 77 | 1018.4 |
| 20260506220051 | 17 | 285 | 11.3 | 25.7 | 0.00 | 0.00 | 0.00 | 78 | 1018.5 |
| 20260506214550 | 17 | 298 | 14.5 | 30.6 | 0.00 | 0.00 | 0.00 | 77 | 1018.7 |
| 20260506213048 | 17 | 291 | 12.9 | 24.1 | 0.00 | 0.00 | 0.00 | 78 | 1018.8 |
| 20260506211548 | 17 | 296 | 14.5 | 24.1 | 0.00 | 0.00 | 0.00 | 75 | 1019.1 |
| 20260506210044 | 17 | 277 | 11.3 | 25.7 | 0.00 | 0.00 | 0.00 | 77 | 1018.9 |
| 20260506204552 | 17 | 279 | 9.7 | 29.0 | 0.00 | 0.00 | 0.00 | 80 | 1019.0 |
| 20260506203040 | 16 | 284 | 12.9 | 25.7 | 0.00 | 0.00 | 0.00 | 80 | 1018.9 |
| 20260506201541 | 16 | 262 | 11.3 | 25.7 | 0.00 | 0.00 | 0.00 | 80 | 1019.0 |
| 20260506200037 | 16 | 290 | 14.5 | 27.4 | 0.00 | 0.00 | 0.00 | 79 | 1019.4 |
| 20260506194542 | 17 | 279 | 9.7 | 24.1 | 0.00 | 0.00 | 0.00 | 79 | 1019.4 |
| 20260506193035 | 16 | 279 | 11.3 | 22.5 | 0.00 | 0.00 | 0.00 | 79 | 1019.5 |
| 20260506191533 | 17 | 300 | 6.4 | 27.4 | 0.00 | 0.00 | 0.00 | 78 | 1019.7 |
| 20260506190028 | 16 | 298 | 9.7 | 25.7 | 0.00 | 0.00 | 0.00 | 80 | 1019.7 |
| 20260506184525 | 16 | 242 | 11.3 | 22.5 | 0.00 | 0.00 | 0.00 | 79 | 1019.6 |
| 20260506183027 | 16 | 294 | 9.7 | 20.9 | 0.00 | 0.00 | 0.00 | 79 | 1019.8 |
| 20260506181527 | 16 | 258 | 14.5 | 25.7 | 0.00 | 0.00 | 0.00 | 77 | 1019.8 |
| 20260506180021 | 16 | 279 | 12.9 | 24.1 | 0.00 | 0.00 | 0.00 | 78 | 1019.8 |
| 20260506174516 | 16 | 271 | 8.0 | 19.3 | 0.00 | 0.00 | 0.00 | 80 | 1019.7 |
| 20260506173016 | 15 | 284 | 8.0 | 17.7 | 0.00 | 0.00 | 0.00 | 80 | 1019.6 |
| 20260506171522 | 15 | 311 | 8.0 | 16.1 | 0.00 | 0.00 | 0.00 | 81 | 1019.7 |
| 20260506170011 | 15 | 246 | 6.4 | 17.7 | 0.00 | 0.00 | 0.00 | 82 | 1019.6 |
| 20260506164510 | 15 | 271 | 8.0 | 16.1 | 0.00 | 0.00 | 0.00 | 82 | 1019.7 |
| 20260506163009 | 14 | 298 | 8.0 | 16.1 | 0.00 | 0.00 | 0.00 | 82 | 1019.7 |
| 20260506161508 | 14 | 273 | 3.2 | 12.9 | 0.00 | 0.00 | 0.00 | 82 | 1019.6 |
| 20260506160003 | 13 | 274 | 6.4 | 11.3 | 0.00 | 0.00 | 0.00 | 84 | 1019.6 |
| 20260506154600 | 13 | 295 | 4.8 | 8.0 | 0.00 | 0.00 | 0.00 | 88 | 1019.7 |
| 20260506153056 | 12 | 348 | 4.8 | 8.0 | 0.00 | 0.00 | 0.00 | 90 | 1019.6 |
| 20260506151605 | 12 | 5 | 3.2 | 6.4 | 0.00 | 0.00 | 0.00 | 93 | 1019.7 |
| 20260506150049 | 11 | 23 | 0.0 | 3.2 | 0.00 | 0.00 | 0.00 | 94 | 1019.7 |
| 20260506144545 | 11 | 22 | 3.2 | 6.4 | 0.00 | 0.00 | 0.00 | 94 | 1019.5 |
| 20260506143051 | 10 | 336 | 3.2 | 6.4 | 0.00 | 0.00 | 0.00 | 94 | 1019.5 |
| 20260506141543 | 10 | 332 | 1.6 | 6.4 | 0.00 | 0.00 | 0.00 | 94 | 1019.3 |
| 20260506140041 | 10 | 332 | 3.2 | 6.4 | 0.00 | 0.00 | 0.00 | 93 | 1019.2 |
| 20260506134539 | 10 | 332 | 3.2 | 4.8 | 0.00 | 0.00 | 0.00 | 93 | 1019.0 |
| 20260506133041 | 10 | 332 | 1.6 | 6.4 | 0.00 | 0.00 | 0.00 | 93 | 1018.9 |
| 20260506131537 | 10 | 49 | 4.8 | 8.0 | 0.00 | 0.00 | 0.00 | 93 | 1018.9 |
| 20260506130036 | 10 | 49 | 4.8 | 8.0 | 0.00 | 0.00 | 0.00 | 93 | 1018.9 |
| 20260506124534 | 10 | 49 | 4.8 | 6.4 | 0.00 | 0.00 | 0.00 | 93 | 1018.7 |
| 20260506123033 | 10 | 49 | 0.0 | 4.8 | 0.00 | 0.00 | 0.00 | 93 | 1018.4 |
| 20260506121533 | 10 | 49 | 0.0 | 6.4 | 0.00 | 0.00 | 0.00 | 93 | 1018.4 |
| 20260506120032 | 10 | 49 | 3.2 | 6.4 | 0.00 | 0.00 | 0.00 | 92 | 1018.3 |
| 20260506114539 | 10 | 49 | 4.8 | 8.0 | 0.00 | 0.00 | 0.00 | 92 | 1018.3 |
| 20260506113029 | 10 | 50 | 3.2 | 6.4 | 0.00 | 0.00 | 0.00 | 92 | 1018.4 |
| 20260506111527 | 10 | 50 | 4.8 | 6.4 | 0.00 | 0.00 | 0.00 | 92 | 1018.4 |
| 20260506110029 | 10 | 50 | 1.6 | 4.8 | 0.00 | 0.00 | 0.00 | 91 | 1018.3 |
| 20260506104524 | 10 | 50 | 3.2 | 4.8 | 0.00 | 0.00 | 0.00 | 91 | 1018.2 |
| 20260506103022 | 10 | 50 | 1.6 | 8.0 | 0.00 | 0.00 | 0.00 | 92 | 1018.2 |
| 20260506101539 | 10 | 50 | 3.2 | 8.0 | 0.00 | 0.00 | 0.00 | 92 | 1018.3 |
| 20260506100020 | 10 | 52 | 4.8 | 8.0 | 0.00 | 0.00 | 0.00 | 92 | 1018.3 |
| 20260506094519 | 10 | 54 | 6.4 | 9.7 | 0.00 | 0.00 | 0.00 | 92 | 1018.3 |
| 20260506093016 | 10 | 58 | 4.8 | 8.0 | 0.00 | 0.00 | 0.00 | 91 | 1018.3 |
| 20260506091520 | 10 | 57 | 4.8 | 8.0 | 0.00 | 0.00 | 0.00 | 91 | 1018.4 |
| 20260506090015 | 10 | 65 | 6.4 | 9.7 | 0.00 | 0.00 | 0.00 | 91 | 1018.4 |
| 20260506084517 | 10 | 67 | 3.2 | 6.4 | 0.00 | 0.00 | 0.00 | 90 | 1018.5 |
| 20260506083010 | 10 | 67 | 1.6 | 4.8 | 0.00 | 0.00 | 0.00 | 90 | 1018.5 |
| 20260506081509 | 11 | 67 | 1.6 | 6.4 | 0.00 | 0.00 | 0.00 | 90 | 1018.5 |
| 20260506073004 | 11 | 69 | 4.8 | 8.0 | 0.00 | 0.00 | 0.00 | 90 | 1018.4 |
| 20260506071502 | 11 | 64 | 3.2 | 6.4 | 0.00 | 0.00 | 0.00 | 90 | 1018.3 |
| 20260506070103 | 11 | 57 | 6.4 | 8.0 | 0.00 | 0.00 | 0.00 | 90 | 1018.1 |
| 20260506061557 | 11 | 15 | 3.2 | 8.0 | 0.00 | 0.00 | 0.00 | 89 | 1017.9 |
| 20260506044555 | 12 | 9 | 1.6 | 4.8 | 0.00 | 0.00 | 0.00 | 88 | 1017.1 |
| 20260506043048 | 12 | 9 | 4.8 | 0.0 | 0.00 | 0.00 | 0.00 | 89 | 1016.9 |
| 20260506041557 | 12 | 5 | 3.2 | 14.5 | 0.00 | 0.00 | 0.00 | 88 | 1016.6 |
| 20260506040045 | 12 | 321 | 4.8 | 14.5 | 0.00 | 0.00 | 0.00 | 88 | 1016.4 |
| 20260506034547 | 13 | 290 | 6.4 | 17.7 | 0.00 | 0.00 | 0.00 | 87 | 1016.4 |
| 20260506033045 | 13 | 302 | 6.4 | 16.1 | 0.00 | 0.00 | 0.00 | 86 | 1016.2 |
| 20260506031547 | 13 | 305 | 4.8 | 16.1 | 0.00 | 0.00 | 0.00 | 85 | 1016.1 |
| 20260506030044 | 13 | 313 | 4.8 | 17.7 | 0.00 | 0.00 | 0.00 | 84 | 1016.0 |
| 20260506024543 | 14 | 325 | 9.7 | 17.7 | 0.00 | 0.00 | 0.00 | 82 | 1016.0 |
| 20260506023044 | 15 | 302 | 6.4 | 19.3 | 0.00 | 0.00 | 0.00 | 81 | 1015.7 |
| 20260506021544 | 15 | 292 | 8.0 | 20.9 | 0.00 | 0.00 | 0.00 | 80 | 1015.8 |
| 20260506020041 | 15 | 281 | 12.9 | 24.1 | 0.00 | 0.00 | 0.00 | 79 | 1015.7 |
| 20260506014549 | 15 | 313 | 8.0 | 22.5 | 0.00 | 0.00 | 0.00 | 79 | 1015.7 |
| 20260506013041 | 16 | 259 | 12.9 | 22.5 | 0.00 | 0.00 | 0.00 | 78 | 1015.9 |
| 20260506011542 | 16 | 336 | 12.9 | 24.1 | 0.00 | 0.00 | 0.00 | 76 | 1015.8 |
| 20260506010038 | 16 | 268 | 12.9 | 27.4 | 0.00 | 0.00 | 0.00 | 76 | 1015.9 |
| 20260506004542 | 16 | 269 | 8.0 | 20.9 | 0.00 | 0.00 | 0.00 | 78 | 1015.7 |
| 20260506003037 | 16 | 273 | 11.3 | 22.5 | 0.00 | 0.00 | 0.00 | 77 | 1015.8 |
| 20260506001549 | 16 | 254 | 11.3 | 22.5 | 0.00 | 0.00 | 0.00 | 76 | 1016.1 |
| 20260506000043 | 17 | 254 | 11.3 | 25.7 | 0.00 | 0.00 | 0.00 | 74 | 1015.8 |
| 20260505234545 | 16 | 269 | 14.5 | 24.1 | 0.00 | 0.00 | 0.00 | 75 | 1015.9 |
| 20260505233034 | 16 | 305 | 11.3 | 22.5 | 0.00 | 0.00 | 0.00 | 74 | 1015.9 |